Location: ???????????
(55.5758°N, 38.4970°E)
Time: 17:57:31
(UTC+00:00)

NOSS 2-1 (E) - Pass Details

Date: 15 November 2025
Orbit: 385 x 1749 km, 63.3° (Epoch: 07 May)

Event Time Altitude Azimuth Distance (km) Brightness Sun altitude
Exits shadow 03:16:18 24° 325° (NW) 870 3.9 -14.4°
Maximum altitude 03:16:50 25° 343° (NNW) 834 4.0 -14.3°
Drops below altitude 10° 03:19:27 10° 42° (NE) 1,440 5.9 -14.0°
Sets 03:21:46 0° 57° (ENE) 2,359 7.3 -13.6°
